Location: Gwatt
(46.7204°N, 7.6223°E)
Time: 23:18:53
(UTC+00:00)

Courier 1B Rocket - Pass Details

Date: 26 January 2021
Orbit: 920 x 1202 km, 28.3° (Epoch: 25 February)

Event Time Altitude Azimuth Distance (km) Brightness Sun altitude
Rises 05:35:01 0° 216° (SW) 3,650 7.8 -14.6°
Reaches altitude 10° 05:39:24 10° 189° (S) 2,765 7.4 -13.9°
Maximum altitude 05:42:05 13° 165° (SSE) 2,613 7.6 -13.5°
Drops below altitude 10° 05:44:51 10° 141° (SE) 2,850 8.2 -13.0°
Sets 05:49:31 0° 115° (ESE) 3,880 10.0 -12.2°
